TimeEDT,TemperatureF,Dew PointF,Humidity,Sea Level PressureIn,VisibilityMPH,Wind Direction,Wind SpeedMPH,Gust SpeedMPH,PrecipitationIn,Events,Conditions,WindDirDegrees,DateUTC
12:18 AM,44.6,41.0,87,30.31,10.0,Calm,Calm,-,N/A,,Clear,0,2013-04-21 04:18:00
12:38 AM,44.6,41.0,87,30.32,10.0,NE,6.9,-,N/A,,Scattered Clouds,40,2013-04-21 04:38:00
12:56 AM,44.6,41.0,87,30.33,10.0,NNE,5.8,-,N/A,,Scattered Clouds,30,2013-04-21 04:56:00
1:16 AM,46.4,37.4,71,30.32,10.0,NNE,6.9,-,N/A,,Clear,30,2013-04-21 05:16:00
1:36 AM,48.2,33.8,58,30.33,10.0,NNE,8.1,-,N/A,,Clear,20,2013-04-21 05:36:00
1:57 AM,50.0,32.0,50,30.33,10.0,NNE,5.8,-,N/A,,Clear,20,2013-04-21 05:57:00
2:16 AM,48.2,32.0,54,30.34,10.0,NNE,9.2,-,N/A,,Clear,30,2013-04-21 06:16:00
2:36 AM,48.2,30.2,50,30.35,10.0,NNE,8.1,-,N/A,,Clear,20,2013-04-21 06:36:00
2:56 AM,48.2,30.2,50,30.36,10.0,NNE,10.4,16.1,N/A,,Clear,20,2013-04-21 06:56:00
3:19 AM,48.2,30.2,50,30.38,10.0,NNE,5.8,-,N/A,,Clear,20,2013-04-21 07:19:00
3:36 AM,48.2,30.2,50,30.39,10.0,NNE,10.4,17.3,N/A,,Clear,20,2013-04-21 07:36:00
3:58 AM,48.2,28.4,46,30.39,10.0,NNE,9.2,16.1,N/A,,Clear,20,2013-04-21 07:58:00
4:16 AM,46.4,26.6,46,30.40,10.0,NNE,8.1,-,N/A,,Clear,20,2013-04-21 08:16:00
4:36 AM,46.4,26.6,46,30.41,10.0,NNE,8.1,-,N/A,,Clear,20,2013-04-21 08:36:00
4:56 AM,46.4,26.6,46,30.42,10.0,NNE,8.1,16.1,N/A,,Clear,20,2013-04-21 08:56:00
5:19 AM,46.4,26.6,46,30.43,10.0,NNE,9.2,-,N/A,,Clear,20,2013-04-21 09:19:00
5:36 AM,46.4,26.6,46,30.44,10.0,NNE,6.9,-,N/A,,Clear,20,2013-04-21 09:36:00
5:56 AM,44.6,26.6,49,30.45,10.0,NNE,8.1,-,N/A,,Clear,30,2013-04-21 09:56:00
6:18 AM,44.6,28.4,53,30.46,10.0,NNE,9.2,-,N/A,,Clear,20,2013-04-21 10:18:00
6:36 AM,44.6,26.6,49,30.47,10.0,NNE,8.1,-,N/A,,Clear,20,2013-04-21 10:36:00
6:56 AM,44.6,28.4,53,30.48,10.0,NNE,8.1,-,N/A,,Clear,20,2013-04-21 10:56:00
7:16 AM,46.4,28.4,50,30.49,10.0,NNE,9.2,-,N/A,,Clear,20,2013-04-21 11:16:00
7:36 AM,46.4,28.4,50,30.50,10.0,NNE,10.4,-,N/A,,Clear,20,2013-04-21 11:36:00
7:56 AM,48.2,28.4,46,30.50,10.0,NNE,9.2,-,N/A,,Clear,30,2013-04-21 11:56:00
8:19 AM,48.2,28.4,46,30.51,10.0,NNE,11.5,19.6,N/A,,Clear,20,2013-04-21 12:19:00
8:37 AM,48.2,28.4,46,30.52,10.0,NE,15.0,20.7,N/A,,Clear,50,2013-04-21 12:37:00
8:59 AM,48.2,30.2,50,30.52,10.0,North,12.7,18.4,N/A,,Clear,10,2013-04-21 12:59:00
9:17 AM,50.0,28.4,43,30.53,10.0,NNE,10.4,18.4,N/A,,Clear,30,2013-04-21 13:17:00
9:39 AM,50.0,30.2,47,30.54,10.0,NNE,13.8,18.4,N/A,,Clear,30,2013-04-21 13:39:00
9:57 AM,51.8,28.4,41,30.54,10.0,NNE,13.8,-,N/A,,Clear,30,2013-04-21 13:57:00
10:21 AM,51.8,26.6,38,30.55,10.0,NNE,11.5,-,N/A,,Clear,30,2013-04-21 14:21:00
10:37 AM,51.8,26.6,38,30.56,10.0,NNE,9.2,-,N/A,,Clear,20,2013-04-21 14:37:00
10:58 AM,51.8,26.6,38,30.57,10.0,NE,11.5,17.3,N/A,,Clear,50,2013-04-21 14:58:00
11:16 AM,53.6,26.6,35,30.56,10.0,North,5.8,-,N/A,,Clear,360,2013-04-21 15:16:00
11:36 AM,53.6,24.8,33,30.57,10.0,North,10.4,17.3,N/A,,Clear,360,2013-04-21 15:36:00
11:56 AM,53.6,24.8,33,30.57,10.0,North,6.9,18.4,N/A,,Clear,10,2013-04-21 15:56:00
12:16 PM,53.6,24.8,33,30.56,10.0,NNW,8.1,-,N/A,,Clear,340,2013-04-21 16:16:00
12:36 PM,55.4,26.6,33,30.56,10.0,NNW,6.9,-,N/A,,Clear,340,2013-04-21 16:36:00
12:58 PM,53.6,32.0,44,30.55,10.0,ENE,10.4,20.7,N/A,,Clear,60,2013-04-21 16:58:00
1:18 PM,51.8,30.2,44,30.55,10.0,East,11.5,16.1,N/A,,Clear,90,2013-04-21 17:18:00
1:36 PM,51.8,30.2,44,30.55,10.0,East,16.1,20.7,N/A,,Clear,80,2013-04-21 17:36:00
1:56 PM,51.8,30.2,44,30.55,10.0,ENE,12.7,20.7,N/A,,Clear,60,2013-04-21 17:56:00
2:17 PM,51.8,30.2,44,30.56,10.0,East,13.8,21.9,N/A,,Clear,80,2013-04-21 18:17:00
2:36 PM,50.0,30.2,47,30.56,10.0,ENE,15.0,23.0,N/A,,Clear,70,2013-04-21 18:36:00
2:58 PM,51.8,30.2,44,30.55,10.0,East,15.0,19.6,N/A,,Clear,80,2013-04-21 18:58:00
3:17 PM,51.8,30.2,44,30.55,10.0,ENE,15.0,-,N/A,,Clear,60,2013-04-21 19:17:00
3:38 PM,51.8,30.2,44,30.55,10.0,ENE,15.0,19.6,N/A,,Clear,60,2013-04-21 19:38:00
3:58 PM,51.8,32.0,47,30.55,10.0,ENE,11.5,16.1,N/A,,Clear,70,2013-04-21 19:58:00
4:16 PM,51.8,28.4,41,30.54,10.0,ENE,16.1,-,N/A,,Clear,70,2013-04-21 20:16:00
4:36 PM,51.8,28.4,41,30.54,10.0,ENE,13.8,-,N/A,,Clear,70,2013-04-21 20:36:00
4:56 PM,51.8,30.2,44,30.54,10.0,East,8.1,-,N/A,,Clear,80,2013-04-21 20:56:00
5:16 PM,50.0,28.4,43,30.54,10.0,ENE,15.0,19.6,N/A,,Clear,70,2013-04-21 21:16:00
5:36 PM,50.0,28.4,43,30.55,10.0,ENE,15.0,-,N/A,,Clear,60,2013-04-21 21:36:00
5:58 PM,48.2,32.0,54,30.56,10.0,ENE,13.8,19.6,N/A,,Clear,70,2013-04-21 21:58:00
6:16 PM,48.2,30.2,50,30.56,10.0,ENE,9.2,-,N/A,,Clear,70,2013-04-21 22:16:00
6:36 PM,48.2,30.2,50,30.55,10.0,ENE,10.4,17.3,N/A,,Clear,70,2013-04-21 22:36:00
6:58 PM,48.2,32.0,54,30.55,10.0,ENE,9.2,16.1,N/A,,Clear,70,2013-04-21 22:58:00
7:16 PM,46.4,32.0,57,30.55,10.0,ENE,11.5,-,N/A,,Clear,70,2013-04-21 23:16:00
7:36 PM,46.4,32.0,57,30.55,10.0,ENE,9.2,-,N/A,,Clear,70,2013-04-21 23:36:00
7:58 PM,44.6,33.8,66,30.56,10.0,ENE,9.2,-,N/A,,Clear,70,2013-04-21 23:58:00
8:16 PM,44.6,33.8,66,30.56,10.0,ENE,6.9,-,N/A,,Clear,60,2013-04-22 00:16:00
8:36 PM,42.8,33.8,70,30.56,10.0,ENE,8.1,-,N/A,,Clear,60,2013-04-22 00:36:00
8:58 PM,42.8,33.8,70,30.56,10.0,ENE,6.9,-,N/A,,Clear,60,2013-04-22 00:58:00
9:16 PM,42.8,33.8,70,30.56,10.0,NE,6.9,-,N/A,,Clear,50,2013-04-22 01:16:00
9:36 PM,42.8,33.8,70,30.57,10.0,NE,6.9,-,N/A,,Clear,50,2013-04-22 01:36:00
9:59 PM,42.8,33.8,70,30.57,10.0,ENE,4.6,-,N/A,,Clear,70,2013-04-22 01:59:00
10:16 PM,41.0,33.8,76,30.57,10.0,ENE,4.6,-,N/A,,Clear,70,2013-04-22 02:16:00
10:36 PM,41.0,33.8,76,30.58,10.0,Calm,Calm,-,N/A,,Clear,0,2013-04-22 02:36:00
10:59 PM,39.2,33.8,81,30.58,10.0,Calm,Calm,-,N/A,,Clear,0,2013-04-22 02:59:00
11:16 PM,39.2,33.8,81,30.57,10.0,NNE,3.5,-,N/A,,Clear,30,2013-04-22 03:16:00
11:36 PM,37.4,33.8,87,30.57,10.0,Calm,Calm,-,N/A,,Clear,0,2013-04-22 03:36:00
11:56 PM,37.4,33.8,87,30.57,10.0,Calm,Calm,-,N/A,,Clear,0,2013-04-22 03:56:00